Location: Elbart
(49.6135°N, 11.9134°E)
Time: 03:00:54
(UTC+00:00)

Cosmos 2237 Rocket - Pass Details

Date: 09 April 2020
Orbit: 834 x 851 km, 71.0° (Epoch: 26 May)

Event Time Altitude Azimuth Distance (km) Brightness Sun altitude
Rises 23:35:56 0° 334° (NNW) 3,410 6.1 -32.1°
Reaches altitude 10° 23:38:41 10° 344° (NNW) 2,475 5.4 -32.1°
Maximum altitude 23:43:42 31° 47° (NE) 1,445 3.7 -32.0°
Enters shadow 23:45:45 25° 83° (E) 1,663 3.8 -31.9°
